Location: Boston
(42.3580°N, 71.0600°W)
Time: 17:51:31
(UTC-04:00)

N. Korean satellite - Pass Details

Date: 16 October 2017
Orbit: 459 x 517 km, 97.2° (Epoch: 18 October)

Event Time Altitude Azimuth Distance (km) Brightness Sun altitude
Rises 06:26:46 0° 37° (NE) 2,493 10.6 -6.6°
Reaches altitude 10° 06:30:30 10° 79° (E) 1,616 10.7 -5.9°
Maximum altitude 06:31:11 10° 91° (E) 1,588 11.0 -5.8°
Drops below altitude 10° 06:31:53 10° 102° (ESE) 1,616 11.1 -5.7°
Sets 06:35:37 0° 145° (SE) 2,496 10.9 -5.0°
